This demonstration page uses our WeatherBlox Daily Observations layout. Learn more.

Left ArrowRight Arrow

Hourly Observations for July 27, 2017

Temp ( °F °C ) Dew Point ( °F °C ) Humidity (%) Winds ( mph kmh ) Pressure ( in mb ) Visibility ( mi km ) Precip ( " mm )
12:15 am 00:15 Mostly Cloudy 71 21.7 68 20.2 91 91 NNE 5 7 30.00 1016 10 16 0.00 0.00
12:35 am 00:35 Cloudy 72 22 69 20.5 91 91 NNE 6 9 30.00 1016 10 16 0.00 0.00
12:55 am 00:55 Partly Cloudy 72 22 69 20.3 90 90 NE 6 9 30.00 1016 10 16 0.00 0.00
1:15 am 01:15 Clear 71 21.6 68 20 91 91 NNE 5 7 30.00 1016 10 16 0.00 0.00
1:35 am 01:35 Mostly Cloudy 71 21.5 68 20 91 91 NNE 3 6 30.00 1016 10 16 0.00 0.00
1:55 am 01:55 Mostly Cloudy 70 21.2 68 19.8 92 92 N 3 6 30.00 1016 10 16 0.00 0.00
2:15 am 02:15 Cloudy 71 21.5 68 20.1 92 92 NNE 5 7 30.00 1016 10 16 0.00 0.00
2:35 am 02:35 Cloudy 71 21.6 68 20.2 92 92 NNE 6 9 30.00 1016 10 16 0.00 0.00
2:55 am 02:55 Cloudy 71 21.6 68 20.1 91 91 NNE 6 9 30.00 1016 10 16 0.00 0.00
3:15 am 03:15 Mostly Cloudy 71 21.6 68 20 91 91 NNE 7 11 30.00 1016 10 16 0.00 0.00
3:35 am 03:35 Cloudy 71 21.6 67 19.4 87 87 NE 8 13 30.00 1016 10 16 0.00 0.00
3:55 am 03:55 Cloudy 70 21.2 66 18.9 87 87 NE 10 17 30.00 1016 10 16 0.00 0.00
4:15 am 04:15 Cloudy 70 21 65 18.5 86 86 NE 7 11 30.00 1016 10 16 0.00 0.00
4:35 am 04:35 Cloudy 69 20.7 65 18.1 85 85 NE 8 13 30.03 1017 10 16 0.00 0.00
4:55 am 04:55 Cloudy 69 20.5 64 17.8 85 85 NE 8 13 30.03 1017 10 16 0.00 0.00
5:15 am 05:15 Cloudy 69 20.4 64 17.5 84 84 NE 7 11 30.03 1017 10 16 0.00 0.00
5:35 am 05:35 Cloudy 68 20.1 63 17.2 83 83 NE 7 11 30.03 1017 10 16 0.00 0.00
5:55 am 05:55 Cloudy 68 20 63 17 83 83 NE 8 13 30.06 1018 10 16 0.00 0.00
6:15 am 06:15 Cloudy 67 19.7 62 16.6 82 82 NE 9 15 30.03 1017 10 16 0.00 0.00
6:35 am 06:35 Cloudy 67 19.7 61 16.2 80 80 NE 7 11 30.06 1018 10 16 0.00 0.00
6:55 am 06:55 Cloudy 67 19.6 62 16.4 82 82 ENE 7 11 30.06 1018 10 16 0.00 0.00
7:15 am 07:15 Cloudy 67 19.7 62 16.4 81 81 NE 6 9 30.06 1018 10 16 0.00 0.00
7:35 am 07:35 Cloudy 67 19.7 62 16.4 81 81 NE 6 9 30.06 1018 10 16 0.00 0.00
7:55 am 07:55 Cloudy 67 19.5 61 16.2 81 81 NE 7 11 30.06 1018 10 16 0.00 0.00
8:15 am 08:15 Cloudy 67 19.5 62 16.4 82 82 NE 7 11 30.06 1018 10 16 0.00 0.00
8:35 am 08:35 Cloudy 68 19.8 62 16.5 81 81 NE 3 6 30.09 1019 10 16 0.00 0.00
8:55 am 08:55 Cloudy 68 20.2 62 16.8 81 81 ENE 5 7 30.09 1019 10 16 0.00 0.00
9:15 am 09:15 Cloudy 69 20.5 62 16.7 79 79 E 6 9 30.09 1019 10 16 0.00 0.00
9:35 am 09:35 Cloudy 70 21 63 17 78 78 ENE 6 9 30.09 1019 10 16 0.00 0.00
9:55 am 09:55 Cloudy 70 21.2 63 17 77 77 ESE 6 9 30.09 1019 10 16 0.00 0.00
10:15 am 10:15 Cloudy 71 21.9 63 17.4 76 76 ENE 6 9 30.06 1018 10 16 0.00 0.00
10:35 am 10:35 Cloudy 73 22.5 63 17.3 73 73 E 9 15 30.06 1018 10 16 0.00 0.00
10:55 am 10:55 Cloudy 73 22.9 61 16.3 66 66 ENE 6 9 30.06 1018 10 16 0.00 0.00
11:15 am 11:15 Cloudy 74 23.6 61 16.2 63 63 E 7 11 30.06 1018 10 16 0.00 0.00
11:35 am 11:35 Cloudy 76 24.6 60 15.4 57 57 E 6 9 30.06 1018 10 16 0.00 0.00
11:55 am 11:55 Cloudy 76 24.5 60 15.5 57 57 E 7 11 30.06 1018 10 16 0.00 0.00
12:15 pm 12:15 Partly Cloudy 77 25 60 15.6 56 56 E 7 11 30.00 1016 10 16 0.00 0.00
12:35 pm 12:35 Sunny 77 25.1 60 15.6 56 56 E 7 11 30.00 1016 10 16 0.00 0.00
12:55 pm 12:55 Sunny 78 25.5 61 16.2 56 56 ENE 7 11 30.00 1016 10 16 0.00 0.00
1:15 pm 13:15 Sunny 78 25.6 60 15.8 55 55 Calm 30.00 1016 10 16 0.00 0.00
1:35 pm 13:35 Sunny 79 25.9 59 15.2 52 52 E 5 7 29.97 1015 10 16 0.00 0.00
1:55 pm 13:55 Sunny 79 26.3 59 15.1 50 50 E 5 7 29.97 1015 10 16 0.00 0.00
2:15 pm 14:15 Sunny 80 26.4 59 15.1 50 50 E 6 9 29.97 1015 10 16 0.00 0.00
2:35 pm 14:35 Sunny 80 26.7 58 14.6 47 47 Calm 29.97 1015 10 16 0.00 0.00
2:55 pm 14:55 Sunny 81 27 58 14.7 47 47 S 3 6 29.97 1015 10 16 0.00 0.00
3:15 pm 15:15 Sunny 81 27 57 13.8 44 44 Calm 29.97 1015 10 16 0.00 0.00
3:35 pm 15:35 Sunny 81 27.4 60 15.5 48 48 Calm 29.97 1015 10 16 0.00 0.00
3:55 pm 15:55 Sunny 82 27.5 60 15.8 49 49 ESE 5 7 29.94 1014 10 16 0.00 0.00
4:15 pm 16:15 Sunny 81 27.4 59 15 47 47 Calm 29.94 1014 10 16 0.00 0.00
4:35 pm 16:35 Sunny 82 27.5 58 14.3 44 44 Calm 29.94 1014 10 16 0.00 0.00
4:55 pm 16:55 Sunny 82 27.5 58 14.6 45 45 E 5 7 29.88 1012 10 16 0.00 0.00
5:15 pm 17:15 Sunny 82 27.8 59 15 46 46 ESE 8 13 29.88 1012 10 16 0.00 0.00
5:35 pm 17:35 Sunny 82 27.6 60 15.3 47 47 ESE 5 7 29.88 1012 10 16 0.00 0.00
5:55 pm 17:55 Sunny 82 27.5 59 14.9 46 46 E 8 13 29.88 1012 10 16 0.00 0.00
6:15 pm 18:15 Sunny 81 27.2 60 15.3 48 48 ESE 9 15 29.91 1013 10 16 0.00 0.00
6:35 pm 18:35 Sunny 81 27 57 14.1 45 45 E 9 15 29.91 1013 10 16 0.00 0.00
6:55 pm 18:55 Sunny 80 26.7 59 15.1 49 49 ESE 10 17 29.91 1013 10 16 0.00 0.00
7:15 pm 19:15 Sunny 80 26.5 59 14.8 49 49 ESE 10 17 29.91 1013 10 16 0.00 0.00
7:35 pm 19:35 Sunny 79 26 59 14.8 50 50 ESE 9 15 29.91 1013 7 11 0.00 0.00
7:55 pm 19:55 Sunny 78 25.6 59 15.2 53 53 ESE 9 15 29.91 1013 10 16 0.00 0.00
8:15 pm 20:15 Sunny 77 25 59 14.9 54 54 ESE 8 13 29.91 1013 10 16 0.00 0.00
8:35 pm 20:35 Sunny 76 24.3 59 15.2 57 57 ESE 8 13 29.91 1013 10 16 0.00 0.00
8:55 pm 20:55 Sunny 74 23.4 60 15.4 61 61 ESE 8 13 29.94 1014 10 16 0.00 0.00
9:15 pm 21:15 Clear 73 22.5 60 15.7 66 66 ESE 8 13 29.94 1014 10 16 0.00 0.00
9:35 pm 21:35 Clear 73 22.5 61 16.3 68 68 SE 5 7 29.94 1014 10 16 0.00 0.00
9:55 pm 21:55 Clear 72 22 63 17 73 73 SE 7 11 29.94 1014 10 16 0.00 0.00
10:15 pm 22:15 Clear 70 21.3 63 17.2 78 78 SE 6 9 29.97 1015 10 16 0.00 0.00
10:35 pm 22:35 Clear 70 21 64 17.5 81 81 SE 7 11 29.94 1014 10 16 0.00 0.00
10:55 pm 22:55 Clear 69 20.7 63 17 79 79 ESE 3 6 29.97 1015 10 16 0.00 0.00
11:15 pm 23:15 Clear 68 20.1 62 16.9 82 82 SE 7 11 30.00 1016 10 16 0.00 0.00
11:35 pm 23:35 Clear 69 20.5 63 17.1 81 81 SE 6 9 29.97 1015 10 16 0.00 0.00
11:55 pm 23:55 Clear 69 20.5 63 17.3 82 82 ESE 5 7 29.97 1015 10 16 0.00 0.00

Powered by AerisWeather